Flag for Montserrat Weather past 2 weeks in Brades, Montserrat

Now
77 °F

Passing clouds.


Feels Like: 79 °F
Forecast: 78 / 81 °F
Wind: 16 mph from East

Location: Vc Bird International Antigua Airport

Current Time: Feb 27, 2015 at 10:15:20 PM

Latest Report: Feb 27, 2015 at 9:00 PM


Visibility: N/A

Pressure: 30.07 "Hg

Humidity: 74%

Dew point: 68 °F

Location of BradesLocation

Historic Weather in Brades — Graph

°F

Brades temperature yesterday

Maximum temperature yesterday: 81 °F (at 11:00 AM)
Minimum temperature yesterday: 75 °F (at 2:00 AM)
Average temperature yesterday: 78 °F

Past Weeks' High & Low Weather Summary

 TemperatureHumidityPressure
High82 °F (Feb 14, 12:00 PM)100% (Feb 22, 5:00 AM)30.09 "Hg (Feb 22, 5:00 AM)
Low32 °F (Feb 22, 5:00 AM)58% (Feb 15, 12:00 PM)29.95 "Hg (Feb 19, 3:00 PM)
Average78 °F74%30.03 "Hg
* Reported Feb 12 9:00 PM — Feb 27 9:00 PM, Brades, Weather by CustomWeather, © 2015

Note: Actual official high and low records may vary slightly from our data, if they occured in-between our weather recording intervals... More about our weather records

Advertising

Brades weather history for previous 24 hours

 ConditionsComfort  
Time TempWeatherWind HumidityBarometerVisibility
9:00 PM
Fri, Feb 27
77 °FPassing clouds.16 mph74%30.07 "HgN/A
8:00 PM77 °FPassing clouds.16 mph79%30.07 "HgN/A
7:00 PM77 °FPassing clouds.16 mph79%30.04 "HgN/A
6:00 PM79 °FScattered clouds.14 mph70%30.04 "HgN/A
5:00 PM79 °FPartly sunny.15 mph74%30.04 "HgN/A
4:00 PM81 °FScattered clouds.14 mph70%30.01 "HgN/A
3:00 PM81 °FSprinkles. Broken clouds.14 mph70%30.04 "HgN/A
2:00 PM81 °FScattered clouds.15 mph70%30.04 "HgN/A
1:00 PM79 °FScattered clouds.14 mph74%30.07 "HgN/A
12:00 PM81 °FSprinkles. Broken clouds.16 mph70%30.09 "HgN/A
11:00 AM81 °FScattered clouds.15 mph66%30.09 "HgN/A
10:00 AM81 °FScattered clouds.15 mph66%30.09 "HgN/A
9:00 AM81 °FPassing clouds.17 mph66%30.09 "HgN/A
8:00 AM79 °FScattered clouds.14 mph70%30.07 "HgN/A
7:00 AM77 °FScattered clouds.13 mph74%30.07 "HgN/A
6:00 AM77 °FPassing clouds.14 mph69%30.04 "HgN/A
4:00 AM77 °FPassing clouds.14 mph69%30.04 "HgN/A
3:00 AM77 °FPassing clouds.15 mph65%30.04 "HgN/A
2:00 AM77 °FPassing clouds.13 mph61%30.07 "HgN/A
1:00 AM77 °FPassing clouds.16 mph69%30.07 "HgN/A
12:00 AM77 °FPassing clouds.13 mph74%30.07 "HgN/A
11:00 PM
Thu, Feb 26
77 °FPassing clouds.10 mph69%30.07 "HgN/A
10:00 PM77 °FPassing clouds.14 mph65%30.07 "HgN/A
Weather by CustomWeather, © 2015

See weather overviewHow to use our weather pages